Showing default

ORBCOMM FM 115, 41186

Orbit data source: Space-Track

ORBCOMM FM 115, 41186 is a payload satellite owned by Orbcomm (US) in LEO that was launched on Tue, 22 Dec 2015 UTC via an FALCON 9 launch vehicle from the Air Force Eastern Test Range (AFETR). Payload-class satellites include a variety of spacecraft equipped with specific instruments for various scientific and technological missions. These include communications satellites like Starlink; space stations such as the ISS; scientific satellites like the Hubble; Earth observation satellites from companies like Planet Labs, Umbra, and HawkEye 360; GPS; miniature CubeSats for education and research; and military/defense satellites.

Loading next visibility...
Identifier
41186, 2015-081H
Orbit
LEO
Last TLE update
12 hours ago
Origin
Manufacturer
SNC Louisville
Mission
Non-operational Commercial Communications
Bus & Motor
SN-100A, Unknown motor
Mass
172 kg wet, 158 kg dry
Launch date (UTC)
2015-12-22 (10 years ago)
Launch vehicle
FALCON 9
Launch site
Air Force Eastern Test Range (AFETR)
Object type
Payload
Rocket body
Debris
Shape & HBR
Box + 1 Pan + 1 Ant, 13 m
Radar Cross Section
2.222 m², Medium (>0.1 m² and < 1m²)

Expand to show TLE details & history

TLE from 12 hours ago
0 ORBCOMM FM 115
1 41186U 15081H   25182.39631134  .00000465  00000-0  12508-3 0  9997
2 41186  46.9996 331.9773 0000697 182.4659 177.6225 14.62520291509854
Epoch: 2025-07-01T09:30Z
TLE epoch observation values (Epoch: 2025-07-01T09:30:41.299Z)
Latitude
-0.00002°
Longitude
-90.38717°
Altitude
685.755 km
Speed
7.515 km/s
True Right ascension
22h 07m 54s
True Declination
0° 00' 00"
Sunlit
Object was in full shadow at epoch
Visualization orbit readout
Latitude
10.9504°
Longitude
-82.33793°
Altitude
684.988 km
Speed
7.516 km/s
Apparent Right ascension
21h 52m 05s
Apparent Declination
-13° 25' 38"
Sunlit
Object is in daylight
Visualization observer readout
Local Sidereal Time
08:43:35
Azimuth
325.604° NNW
Elevation
-59.536°
Doppler factor
1
Orbital elements
Apogee altitude
686.777 km
Perigee altitude
685.793 km
Semi-major axis
7,064.422 km
Eccentricity
0.00007
Inclination
46.9996°
RAAN
331.9773°
Arg. of periapsis
182.4659°
True anomaly
Unknown
Mean anomaly
177.6225°
Eccentric anomaly
Unknown
Mean motion
3.65534 °/min
Orbital period
98.49 mins
BSTAR
0.00012508
Loading maneuver chart data...
Loading SW <> Apogee altitude chart data...
Loading historical data...
Loading historical data...
Loading historical data...
Loading historical data...
Loading historical data...
Loading historical data...
Loading historical data...

ORBCOMM FM 115 Visibility forecast

Observer location: undefined°, undefined°

Span
Click to sort rows by Start time (UTC) header in descending order
Start Az.
Max El. time (UTC)
Max El. Az.
Max El.
End time (UTC)
End Az.
7 mins2025-07-02 11:54:23.710Z185.271° SSW2025-07-02 11:57:23.710Z139.523° SSE23.41°2025-07-02 12:01:23.710Z82.802° E
7 mins2025-07-02 13:37:23.710Z249.127° W2025-07-02 13:40:23.710Z338.763° N44.413°2025-07-02 13:44:23.710Z59.669° ENE
7 mins2025-07-02 15:21:23.710Z298.402° NW2025-07-02 15:24:23.710Z3.589° NNE31.03°2025-07-02 15:28:23.710Z60.243° ENE
8 mins2025-07-02 17:04:23.710Z306.854° NW2025-07-02 17:08:23.710Z27.733° NE33.648°2025-07-02 17:12:23.710Z84.107° E
7 mins2025-07-02 18:48:23.710Z292.396° WNW2025-07-02 18:51:23.710Z215.223° SW43.732°2025-07-02 18:55:23.710Z129.152° SE
4 mins2025-07-02 20:32:23.710Z249.442° W2025-07-02 20:34:23.710Z221.552° SW14.998°2025-07-02 20:36:23.710Z195.869° SSW
|